Regional Weather Roundup
Issued by NWS

Home | Current Version | Previous Version | Graphics & Text | Print | Product List | Glossary On
Versions: 1 2 3 4 5 6 7 8 9 10 11 12 13 14 15 16 17 18 19 20 21 22 23 24 25 26 27 28 29 30 31 32 33 34 35 36 37 38 39 40 41 42 43 44 45 46 47 48 49 50
000
ASUS43 KMPX 182210
RWRMN
WEATHER ROUNDUP FOR MINNESOTA
NATIONAL WEATHER SERVICE TWIN CITIES/CHANHASSEN MN
500 PM CDT SAT APR 18 2015


NOTE: "FAIR" INDICATES FEW OR NO CLOUDS BELOW 12,000 FEET WITH NO
SIGNIFICANT WEATHER AND/OR OBSTRUCTIONS TO VISIBILITY. N/A MEANS
CURRENT SKY AND/OR WEATHER CONDITIONS ARE NOT AVAILABLE.

MNZ060>063-068>070-182300-
   Twin Cities Metro

CITY           SKY/WX    TMP DP  RH WIND       PRES   REMARKS
TWIN CITIES    CLOUDY    71  34  25 NE15      29.94F
ST PAUL        CLOUDY    69  34  27 E16       29.95F
CRYSTAL        CLOUDY    70  32  24 E14       29.94F
LAKEVILLE      CLOUDY    72  39  30 E15G22    29.92F
EDEN PRAIRIE   CLOUDY    72  35  25 E14G22    29.92F
SOUTH ST PAUL  CLOUDY    72  32  22 E9        29.94F
LAKE ELMO      FAIR      70  36  28 E12       29.97F
$$
MNZ001>005-007-008-013>017-022>024-027-028-182300-
   Northwest Minnesota

CITY           SKY/WX    TMP DP  RH WIND       PRES   REMARKS
BEMIDJI        MOSUNNY   64  28  26 SE14      29.98F
HALLOCK        MOSUNNY   68  14  12 S8G17     29.93F
ROSEAU         MOSUNNY   64  18  16 SE9G16    29.97F
WARROAD        PTSUNNY   54  32  43 NE7       29.99F
THIEF RVR FALL CLOUDY    66  27  22 SE6       29.95F
CROOKSTON      CLOUDY    68  28  22 SE6       29.94F
FOSSTON        CLOUDY    66  27  22 SE10      29.95F
DETROIT LAKES  PTSUNNY   68  32  26 SE10      29.95F
MOORHEAD       PTSUNNY   73  27  17 SE10      29.91F
PARK RAPIDS    MOSUNNY   68  28  22 SE12      29.96F
MAHNOMEN       FAIR      68  30  24 SE9       29.94F
$$
MNZ006-009>011-018-025>026-182300-
   North Central Minnesota

CITY           SKY/WX    TMP DP  RH WIND       PRES   REMARKS
BAUDETTE       PTSUNNY   65  19  17 SE7       29.99F
FLAG ISLAND    MOSUNNY   57  23  26 E7        29.99F
INTL FALLS     MOSUNNY   61  20  20 SE12G22   30.04S
WASKISH        PTSUNNY   64  28  25 SE7G18    30.00F
BIG FORK       SUNNY     63  16  16 SE13      30.04S
LONGVILLE      SUNNY     64  28  25 E8        30.00F
GRAND RAPIDS   SUNNY     59  28  31 E9G16     30.04F
ORR            MOSUNNY   63   3   9 SE10G17   30.03F
COOK           SUNNY     59  10  14 SE12G17   30.07F
WALKER         FAIR      61  32  34 E6        29.98F
$$
MNZ012-019>021-037-182300-
   Northeast Minnesota

CITY           SKY/WX    TMP DP  RH WIND       PRES   REMARKS
DULUTH         SUNNY     48  31  51 E17G24    30.09F
ELY            SUNNY     57   7  13 SE15      30.10F
HIBBING        SUNNY     60  20  21 SE15G22   30.06F
EVELETH        SUNNY     57  21  24 SE10G22   30.08F
DULUTH HARBOR  SUNNY     39  36  87 NE24      30.13F
TWO HARBORS    SUNNY     48  36  61 E21G28    30.12F
SILVER BAY     SUNNY     46  32  57 NE12      30.14F
GRAND MARAIS     N/A     40  32  73 E9        30.21F
G MARAIS ARPRT SUNNY     46  16  29 E12G20    30.18F
$$
MNZ029>031-032-039>041-046>048-054>057-064-182300-
   West Central Minnesota

CITY           SKY/WX    TMP DP  RH WIND       PRES   REMARKS
FERGUS FALLS   MOSUNNY   72  21  15 SE13G18   29.91F
WHEATON        CLOUDY    70  30  23 SE14G22   29.89F
MORRIS         PTSUNNY   73  28  19 SE15G24   29.88F
ALEXANDRIA     MOSUNNY   70  27  20 SE16G25   29.94F
ELBOW LAKE     FAIR      71  28  20 SE15      29.90F
WADENA         MOSUNNY   68  34  28 E12G17    29.94F
GLENWOOD       PTSUNNY   70  28  21 E15G21    29.93F
APPLETON       CLOUDY    73  27  17 E14       29.87F
BENSON         CLOUDY    72  23  16 SE10G16   29.89F
ORTONVILLE     CLOUDY    72  28  20 E14       29.87F
MADISON        CLOUDY    73  28  19 E16       29.86F
WILLMAR        FAIR      72  32  23 E16       29.91F
$$
MNZ033>034-036-042>043-049>051-058-059-182300-
   Central Minnesota

CITY           SKY/WX    TMP DP  RH WIND       PRES   REMARKS
ST CLOUD       PTSUNNY   69  31  24 E12       29.94F
SAUK CENTRE    FAIR      69  30  23 E13       29.94F
PAYNESVILLE    PTSUNNY   66  29  24 E13G18    29.93F
AITKIN         SUNNY     66  32  28 E8        30.00F
PINE RIVER     SUNNY     64  37  36 E12       30.01F
BRAINERD       SUNNY     66  30  26 SE12G18   29.99F
STAPLES        SUNNY     68  28  22 E10       29.96F
LONG PRAIRIE   FAIR      66  32  28 E10       29.95F
LITTLE FALLS   SUNNY     68  30  24 SE10G18   29.96F
LITCHFIELD     CLOUDY    70  32  24 E13       29.93F
BUFFALO        CLOUDY    69  30  22 E12       29.95F
MAPLE LAKE     CLOUDY    69  35  28 E10       29.95F
$$
MNZ037-044-045-052-053-182300-
   East Central Minnesota

CITY           SKY/WX    TMP DP  RH WIND       PRES   REMARKS
PRINCETON      PTSUNNY   70  30  23 E10G16    29.96F
MORA           MOSUNNY   68  32  26 E9G20     30.00F
CAMBRIDGE      PTSUNNY   72  45  37 E10G17    29.95F
RUSH CITY      PTSUNNY   69  32  25 E7        29.98F
MOOSE LAKE     SUNNY     52  32  46 NE13G20   30.04F
HINCKLEY       FAIR      64  36  34 NE12G20   30.00F
CLOQUET        SUNNY     46  28  49 E16G26    30.09F
MCGREGOR       SUNNY     59  34  38 E13       30.04F
$$
MNZ071>073-080-081-089-090-097-098-182300-
   Southwest Minnesota

CITY           SKY/WX    TMP DP  RH WIND       PRES   REMARKS
MONTEVIDEO     CLOUDY    72  32  23 SE16      29.88F
GRANITE FALLS  CLOUDY    70  40  33 SE14      29.89F
CANBY          CLOUDY    68  47  47 S12G18    29.87F
MARSHALL       CLOUDY    66  46  48 S15       29.88F
REDWOOD FALLS  CLOUDY    68  42  38 S12       29.88F
OLIVIA         CLOUDY    70  32  24 E12G23    29.89S
PIPESTONE      LGT RAIN  57  55  94 S9        29.88F
WINDOM         CLOUDY    57  55  94 CALM      29.89F
WORTHINGTON    CLOUDY    55  52  88 SE6       29.90S
JACKSON        LGT RAIN  57  54  88 NE6       29.87F
TRACY          CLOUDY    65  53  63 S7        29.89F
SLAYTON        LGT RAIN  58  55  89 SE6       29.90F
$$
MNZ065>067-074>077-082>085-091>093-182300-
   South Central Minnesota

CITY           SKY/WX    TMP DP  RH WIND       PRES   REMARKS
MANKATO        CLOUDY    72  43  35 CALM      29.89F
NEW ULM        CLOUDY    70  43  37 CALM      29.88F
ST JAMES       LGT RAIN  66  45  45 S5        29.89F
FAIRMONT       CLOUDY    59  52  77 SE9       29.90R
GLENCOE        CLOUDY    72  38  28 NE10      29.90F
FARIBAULT      CLOUDY    72  39  30 E10G16    29.92F
OWATONNA       CLOUDY    73  39  29 E13G23    29.90F
ALBERT LEA     LGT RAIN  72  46  40 SE12G20   29.89R
$$
MNZ078>079-086>088-094>096-182300-
   Southeast Minnesota

CITY           SKY/WX    TMP DP  RH WIND       PRES   REMARKS
ROCHESTER      PTSUNNY   70  42  36 E17       29.94F
RED WING       PTSUNNY   75  34  22 SE13      29.93F
STANTON        CLOUDY    73  37  26 E10G18    29.91F
DODGE CENTER   PTSUNNY   72  39  30 E17       29.92F
WINONA         PTSUNNY   73  39  29 SE16      29.96F
AUSTIN         CLOUDY    72  45  37 E18G26    29.89F
PRESTON        MOSUNNY   70  40  33 SE14G21   29.94F
$$
ABBREVIATIONS USED IN REMARKS
   TC - TEMPERATURES IN CELSIUS
  WCI - WIND CHILL INDEX
   HX - HEAT INDEX
  VSB - VISIBILITY
$$



USA.gov is the U.S. government's official web portal to all federal, state and local government web resources and services.